GW1987 Weather Reports


Display with metric or nautical units.
time (UTC)temp
F
wind
direction
speed
MPH
gust
MPH
rain 1hr
in
rain 24hr
in
rain mn
in
humidity
%
barometer
mb
20260901045518 59 360 3.0 5.0 0.00 0.00 0.00 44 925.7
20260901045019 61 360 2.0 4.0 0.00 0.00 0.00 41 925.5
20260901044600 63 360 1.0 4.0 0.00 0.00 0.00 35 925.5
20260901044017 64 360 3.0 4.0 0.00 0.00 0.00 32 925.5
20260901043519 64 360 2.0 4.0 0.00 0.00 0.00 34 925.7
20260901043051 64 360 2.0 5.0 0.00 0.00 0.00 32 925.7
20260901042516 65 360 3.0 5.0 0.00 0.00 0.00 33 925.8
20260901042020 64 360 2.0 4.0 0.00 0.00 0.00 32 925.8
20260901041546 64 360 2.0 5.0 0.00 0.00 0.00 33 925.7
20260901041017 63 360 3.0 5.0 0.00 0.00 0.00 34 925.7
20260901040517 63 360 4.0 5.0 0.00 0.00 0.00 35 925.7
20260901040110 64 360 3.0 5.0 0.00 0.00 0.00 33 925.6
20260901035518 65 360 3.0 5.0 0.00 0.00 0.00 32 925.7
20260901035016 67 360 3.0 6.0 0.00 0.00 0.00 30 925.6
20260901034605 68 360 3.0 6.0 0.00 0.00 0.00 29 925.5
20260901034017 68 360 0.0 9.0 0.00 0.00 0.00 28 925.4
20260901033517 67 360 5.0 13.0 0.00 0.00 0.00 29 925.5
20260901033046 69 360 7.0 14.0 0.00 0.00 0.00 28 925.2
20260901032517 66 360 11.0 14.0 0.00 0.00 0.00 32 925.1
20260901032019 64 360 5.0 9.0 0.00 0.00 0.00 34 925.0
20260901031555 64 360 6.0 10.0 0.00 0.00 0.00 34 924.9
20260901031018 64 360 7.0 11.0 0.00 0.00 0.00 35 924.8
20260901030517 65 360 9.0 11.0 0.00 0.00 0.00 34 924.8
20260901030050 66 360 7.0 12.0 0.00 0.00 0.00 32 924.7
20260901025519 64 360 9.0 12.0 0.00 0.00 0.00 36 924.5
20260901025021 63 360 6.0 11.0 0.00 0.00 0.00 36 924.4
20260901024553 64 360 8.0 11.0 0.00 0.00 0.00 36 924.5
20260901024021 62 360 9.0 11.0 0.00 0.00 0.00 38 924.5
20260901023518 61 360 6.0 8.0 0.00 0.00 0.00 41 924.5
20260901023101 61 360 4.0 8.0 0.00 0.00 0.00 41 924.6
20260901022517 62 360 5.0 8.0 0.00 0.00 0.00 39 924.7
20260901022019 62 360 6.0 8.0 0.00 0.00 0.00 38 924.5
20260901021553 63 360 3.0 5.0 0.00 0.00 0.00 38 924.5
20260901021019 64 360 3.0 5.0 0.00 0.00 0.00 36 924.6
20260901020518 66 360 4.0 6.0 0.00 0.00 0.00 34 924.6
20260901020050 67 360 4.0 8.0 0.00 0.00 0.00 32 924.6
20260901015517 68 360 5.0 8.0 0.00 0.00 0.00 31 924.6
20260901015023 69 360 6.0 8.0 0.00 0.00 0.00 29 924.5
20260901014554 70 360 5.0 9.0 0.00 0.00 0.00 28 924.7
20260901014017 71 360 7.0 9.0 0.00 0.00 0.00 27 924.7
20260901013519 72 360 6.0 10.0 0.00 0.00 0.00 27 924.7
20260901013057 73 360 8.0 11.0 0.00 0.00 0.00 25 924.8
20260901012519 73 360 10.0 11.0 0.00 0.00 0.00 23 924.6
20260901012017 74 360 8.0 11.0 0.00 0.00 0.00 23 924.8
20260901011550 74 360 9.0 11.0 0.00 0.00 0.00 22 924.7
20260901011017 75 360 7.0 12.0 0.00 0.00 0.00 22 924.7
20260901010522 75 360 9.0 12.0 0.00 0.00 0.00 21 924.6
20260901010057 75 360 7.0 12.0 0.00 0.00 0.00 21 924.7
20260901005518 75 360 10.0 12.0 0.00 0.00 0.00 21 924.6
20260901005020 75 360 8.0 13.0 0.00 0.00 0.00 20 924.8
20260901004558 75 360 10.0 13.0 0.00 0.00 0.00 20 924.7
20260901004017 75 360 9.0 13.0 0.00 0.00 0.00 20 924.8
20260901003517 76 360 10.0 13.0 0.00 0.00 0.00 21 924.9
20260901003049 76 360 9.0 13.0 0.00 0.00 0.00 20 925.0
20260901002519 76 360 5.0 13.0 0.00 0.00 0.00 21 925.0
20260901002022 76 360 10.0 13.0 0.00 0.00 0.00 20 925.0
20260901001545 76 360 9.0 12.0 0.00 0.00 0.00 20 925.0
20260901001023 76 360 7.0 14.0 0.00 0.00 0.00 20 924.9
20260901000519 76 360 9.0 14.0 0.00 0.00 0.00 20 925.0
20260901000054 76 360 9.0 13.0 0.00 0.00 0.00 20 925.0
20260831235518 76 360 6.0 12.0 0.00 0.00 0.00 20 925.1
20260831235018 76 360 6.0 11.0 0.00 0.00 0.00 20 925.2
20260831234550 77 360 5.0 13.0 0.00 0.00 0.00 20 925.2
20260831234021 77 360 8.0 13.0 0.00 0.00 0.00 20 925.3
20260831233520 77 360 4.0 11.0 0.00 0.00 0.00 20 925.5
20260831233049 77 360 2.0 6.0 0.00 0.00 0.00 18 925.3
20260831232520 77 360 1.0 6.0 0.00 0.00 0.00 18 925.5
20260831232020 77 360 0.0 6.0 0.00 0.00 0.00 19 925.5
20260831231545 77 360 4.0 6.0 0.00 0.00 0.00 19 925.6
20260831231019 76 360 1.0 6.0 0.00 0.00 0.00 19 925.7
20260831230518 76 360 2.0 12.0 0.00 0.00 0.00 19 925.7
20260831230103 77 360 8.0 12.0 0.00 0.00 0.00 19 925.7
20260831225516 77 360 1.0 11.0 0.00 0.00 0.00 19 925.6
20260831225018 77 360 4.0 11.0 0.00 0.00 0.00 20 925.7
20260831224550 77 360 5.0 9.0 0.00 0.00 0.00 19 925.7
20260831224021 78 360 3.0 5.0 0.00 0.00 0.00 18 925.7
20260831223521 78 360 1.0 6.0 0.00 0.00 0.00 18 925.7
20260831223054 78 360 2.0 9.0 0.00 0.00 0.00 18 925.8
20260831222516 77 360 3.0 12.0 0.00 0.00 0.00 18 925.8
20260831222017 77 360 7.0 14.0 0.00 0.00 0.00 19 925.7
20260831221558 76 360 6.0 14.0 0.00 0.00 0.00 20 925.7
20260831221019 77 360 4.0 9.0 0.00 0.00 0.00 20 925.8
20260831220520 77 360 2.0 15.0 0.00 0.00 0.00 19 925.7
20260831220100 77 360 8.0 15.0 0.00 0.00 0.00 19 925.7
20260831215519 77 360 2.0 12.0 0.00 0.00 0.00 19 925.8
20260831215019 77 360 2.0 12.0 0.00 0.00 0.00 19 925.9
20260831214559 76 360 2.0 10.0 0.00 0.00 0.00 19 925.8
20260831214021 76 360 4.0 8.0 0.00 0.00 0.00 21 925.8
20260831213518 75 360 3.0 10.0 0.00 0.00 0.00 21 925.9
20260831213051 75 360 3.0 11.0 0.00 0.00 0.00 21 926.1
20260831212520 76 360 5.0 12.0 0.00 0.00 0.00 20 925.9
20260831212020 76 360 5.0 12.0 0.00 0.00 0.00 19 926.0
20260831211601 77 360 4.0 15.0 0.00 0.00 0.00 20 926.0
20260831211018 76 360 4.0 15.0 0.00 0.00 0.00 21 926.0
20260831210520 76 360 3.0 9.0 0.00 0.00 0.00 21 926.3
20260831210044 76 360 3.0 9.0 0.00 0.00 0.00 20 926.4
20260831205518 75 360 5.0 13.0 0.00 0.00 0.00 21 926.4
20260831205019 75 360 6.0 13.0 0.00 0.00 0.00 21 926.3
20260831204557 75 360 3.0 13.0 0.00 0.00 0.00 21 926.4
20260831204017 75 360 5.0 12.0 0.00 0.00 0.00 22 926.5
20260831203519 74 360 6.0 13.0 0.00 0.00 0.00 22 926.6
20260831203052 74 360 5.0 13.0 0.00 0.00 0.00 22 926.7
20260831202516 74 360 4.0 12.0 0.00 0.00 0.00 23 926.7
20260831202016 73 360 7.0 13.0 0.00 0.00 0.00 22 926.9
20260831201550 74 360 3.0 14.0 0.00 0.00 0.00 23 926.9
20260831201020 73 360 6.0 14.0 0.00 0.00 0.00 23 927.0
20260831200518 74 360 7.0 12.0 0.00 0.00 0.00 23 927.0
20260831200054 73 360 2.0 12.0 0.00 0.00 0.00 25 926.9
20260831195517 72 360 6.0 12.0 0.00 0.00 0.00 24 927.0
20260831195018 72 360 2.0 10.0 0.00 0.00 0.00 23 927.0
20260831194554 72 360 5.0 11.0 0.00 0.00 0.00 23 927.1
20260831194023 73 360 7.0 11.0 0.00 0.00 0.00 24 927.0
20260831193522 72 360 6.0 11.0 0.00 0.00 0.00 24 927.1
20260831193048 72 360 5.0 10.0 0.00 0.00 0.00 24 927.1
20260831192517 71 360 2.0 11.0 0.00 0.00 0.00 25 927.2
20260831192022 71 360 5.0 11.0 0.00 0.00 0.00 25 927.2
20260831191556 71 360 5.0 9.0 0.00 0.00 0.00 25 927.3
20260831191018 70 360 1.0 11.0 0.00 0.00 0.00 26 927.3
20260831190518 71 360 7.0 11.0 0.00 0.00 0.00 24 927.5
20260831190106 70 360 3.0 11.0 0.00 0.00 0.00 25 927.5
20260831185518 70 360 6.0 11.0 0.00 0.00 0.00 27 927.5
20260831185024 70 360 2.0 12.0 0.00 0.00 0.00 26 927.5
20260831184549 70 360 8.0 12.0 0.00 0.00 0.00 26 927.5
20260831184019 70 360 6.0 11.0 0.00 0.00 0.00 26 927.7
20260831183523 70 360 2.0 8.0 0.00 0.00 0.00 26 927.7
20260831183100 70 360 3.0 11.0 0.00 0.00 0.00 27 927.8
20260831182517 70 360 5.0 11.0 0.00 0.00 0.00 27 927.8
20260831182018 70 360 0.0 9.0 0.00 0.00 0.00 28 927.8
20260831181559 69 360 4.0 9.0 0.00 0.00 0.00 27 928.1
20260831181016 69 360 2.0 8.0 0.00 0.00 0.00 27 928.0
20260831180520 69 360 2.0 8.0 0.00 0.00 0.00 28 928.1
20260831180105 69 360 4.0 8.0 0.00 0.00 0.00 29 927.9
20260831175520 68 360 1.0 8.0 0.00 0.00 0.00 29 927.8
20260831175019 68 360 5.0 8.0 0.00 0.00 0.00 29 928.0
20260831174549 67 360 2.0 9.0 0.00 0.00 0.00 29 928.0
20260831174022 67 360 3.0 9.0 0.00 0.00 0.00 30 928.1
20260831173519 68 360 4.0 9.0 0.00 0.00 0.00 30 928.2
20260831173058 67 360 0.0 6.0 0.00 0.00 0.00 31 928.0
20260831172519 67 360 4.0 10.0 0.00 0.00 0.00 31 928.1
20260831172024 67 360 6.0 10.0 0.00 0.00 0.00 33 928.1
20260831171553 66 360 4.0 10.0 0.00 0.00 0.00 32 927.9
20260831171017 66 360 6.0 10.0 0.00 0.00 0.00 33 928.0
20260831170519 66 360 1.0 9.0 0.00 0.00 0.00 34 928.0
20260831170104 66 360 3.0 13.0 0.00 0.00 0.00 33 928.1
20260831165523 66 360 9.0 13.0 0.00 0.00 0.00 32 927.9
20260831165020 66 360 5.0 11.0 0.00 0.00 0.00 33 928.0
20260831164625 66 360 6.0 13.0 0.00 0.00 0.00 33 928.0
20260831164019 65 360 6.0 13.0 0.00 0.00 0.00 32 928.1
20260831163520 65 360 9.0 14.0 0.00 0.00 0.00 32 927.9
20260831163102 65 360 8.0 17.0 0.00 0.00 0.00 33 927.9
20260831162521 65 360 12.0 19.0 0.00 0.00 0.00 33 927.7
20260831162022 65 360 12.0 19.0 0.00 0.00 0.00 32 927.7
20260831161619 64 360 12.0 16.0 0.00 0.00 0.00 33 927.6
20260831161020 64 360 11.0 16.0 0.00 0.00 0.00 32 927.6
20260831160517 64 360 12.0 15.0 0.00 0.00 0.00 33 927.5
20260831160109 64 360 9.0 13.0 0.00 0.00 0.00 34 927.8
20260831155523 64 360 7.0 13.0 0.00 0.00 0.00 35 927.8
20260831155024 63 360 8.0 16.0 0.00 0.00 0.00 35 927.7
20260831154632 63 360 9.0 16.0 0.00 0.00 0.00 35 927.7
20260831154028 63 360 10.0 16.0 0.00 0.00 0.00 35 927.8
20260831153520 62 360 10.0 16.0 0.00 0.00 0.00 36 927.9
20260831153104 62 360 10.0 16.0 0.00 0.00 0.00 36 927.8
20260831152523 62 360 9.0 16.0 0.00 0.00 0.00 37 927.4
20260831152020 62 360 10.0 16.0 0.00 0.00 0.00 37 927.4
20260831151602 61 360 10.0 15.0 0.00 0.00 0.00 38 927.3
20260831151019 61 360 11.0 15.0 0.00 0.00 0.00 38 927.4
20260831150524 60 360 9.0 17.0 0.00 0.00 0.00 39 927.5
20260831150107 60 360 12.0 17.0 0.00 0.00 0.00 39 927.3
20260831145520 60 360 11.0 17.0 0.00 0.00 0.00 40 927.2
20260831145018 59 360 10.0 15.0 0.00 0.00 0.00 41 927.3
20260831144622 59 360 10.0 14.0 0.00 0.00 0.00 41 927.2
20260831144025 58 360 10.0 15.0 0.00 0.00 0.00 42 927.1
20260831143521 58 360 10.0 15.0 0.00 0.00 0.00 43 927.1
20260831143106 58 360 9.0 15.0 0.00 0.00 0.00 43 927.1
20260831142521 57 360 9.0 14.0 0.00 0.00 0.00 44 927.1
20260831142020 56 360 6.0 13.0 0.00 0.00 0.00 46 927.1
20260831141628 56 360 7.0 13.0 0.00 0.00 0.00 46 927.1
20260831141019 55 360 7.0 13.0 0.00 0.00 0.00 47 927.2
20260831140526 54 360 9.0 13.0 0.00 0.00 0.00 48 927.1
20260831140106 54 360 7.0 11.0 0.00 0.00 0.00 49 927.1
20260831135517 53 360 6.0 12.0 0.00 0.00 0.00 50 926.8
20260831135019 53 360 8.0 13.0 0.00 0.00 0.00 50 926.8
20260831134603 52 360 9.0 13.0 0.00 0.00 0.00 51 926.9
20260831134019 52 360 10.0 12.0 0.00 0.00 0.00 52 926.7
20260831133520 51 360 8.0 11.0 0.00 0.00 0.00 53 926.8
20260831133100 50 360 8.0 11.0 0.00 0.00 0.00 54 926.7
20260831132527 50 360 7.0 11.0 0.00 0.00 0.00 55 926.5
20260831132017 49 360 8.0 12.0 0.00 0.00 0.00 55 926.4
20260831131610 49 360 9.0 12.0 0.00 0.00 0.00 56 926.3
20260831131016 48 360 8.0 11.0 0.00 0.00 0.00 56 926.3
20260831130520 48 360 7.0 10.0 0.00 0.00 0.00 56 926.3
20260831130129 48 360 7.0 11.0 0.00 0.00 0.00 56 926.4
20260831125525 49 360 8.0 12.0 0.00 0.00 0.00 55 926.2
20260831125021 49 360 9.0 12.0 0.00 0.00 0.00 53 926.1
20260831124616 50 360 9.0 13.0 0.00 0.00 0.00 52 926.1
20260831124027 51 360 8.0 14.0 0.00 0.00 0.00 51 926.1
20260831123520 51 360 9.0 14.0 0.00 0.00 0.00 51 926.2
20260831123059 51 360 8.0 15.0 0.00 0.00 0.00 51 926.2
20260831122524 51 360 10.0 15.0 0.00 0.00 0.00 51 926.2
20260831122024 51 360 8.0 13.0 0.00 0.00 0.00 51 926.2
20260831121624 51 360 9.0 13.0 0.00 0.00 0.00 51 926.1
20260831121027 51 360 9.0 13.0 0.00 0.00 0.00 50 926.2
20260831120520 52 360 9.0 15.0 0.00 0.00 0.00 50 926.3
20260831120123 52 360 10.0 17.0 0.00 0.00 0.00 49 926.1
20260831115524 52 360 11.0 17.0 0.00 0.00 0.00 50 925.9
20260831115017 52 360 12.0 16.0 0.00 0.00 0.00 50 925.9
20260831114625 51 360 8.0 12.0 0.00 0.00 0.00 51 925.9
20260831114020 51 360 9.0 12.0 0.00 0.00 0.00 51 926.1
20260831113519 51 360 8.0 12.0 0.00 0.00 0.00 51 925.9
20260831113101 52 360 7.0 12.0 0.00 0.00 0.00 49 925.9
20260831112517 52 360 8.0 13.0 0.00 0.00 0.00 49 925.7
20260831112018 52 360 10.0 13.0 0.00 0.00 0.00 49 925.6
20260831111612 53 360 9.0 14.0 0.00 0.00 0.00 48 925.6
20260831111023 53 360 9.0 15.0 0.00 0.00 0.00 48 925.7
20260831110521 53 360 9.0 15.0 0.00 0.00 0.00 48 925.6
20260831110114 53 360 10.0 16.0 0.00 0.00 0.00 48 925.7
20260831105519 53 360 10.0 16.0 0.00 0.00 0.00 48 925.7
20260831105025 53 360 8.0 12.0 0.00 0.00 0.00 48 925.6
20260831104604 53 360 6.0 13.0 0.00 0.00 0.00 48 925.7
20260831104026 53 360 9.0 14.0 0.00 0.00 0.00 47 925.6
20260831103522 53 360 9.0 15.0 0.00 0.00 0.00 47 925.5
20260831103104 53 360 10.0 16.0 0.00 0.00 0.00 47 925.2
20260831102520 54 360 11.0 18.0 0.00 0.00 0.00 47 925.3
20260831102021 54 360 10.0 18.0 0.00 0.00 0.00 46 925.2
20260831101624 54 360 11.0 18.0 0.00 0.00 0.00 46 925.2
20260831101021 54 360 12.0 18.0 0.00 0.00 0.00 46 925.1
20260831100523 54 360 11.0 18.0 0.00 0.00 0.00 46 925.2
20260831100130 54 360 11.0 19.0 0.00 0.00 0.00 46 925.0
20260831095520 54 360 13.0 18.0 0.00 0.00 0.00 46 925.0
20260831095020 54 360 11.0 18.0 0.00 0.00 0.00 46 924.9
20260831094623 54 360 11.0 17.0 0.00 0.00 0.00 46 925.0
20260831094021 54 360 12.0 18.0 0.00 0.00 0.00 46 924.9
20260831093521 54 360 12.0 18.0 0.00 0.00 0.00 46 924.9
20260831093108 54 360 12.0 19.0 0.00 0.00 0.00 46 924.7
20260831092520 54 360 12.0 19.0 0.00 0.00 0.00 46 924.6
20260831092019 54 360 13.0 20.0 0.00 0.00 0.00 46 924.6
20260831091604 54 360 14.0 20.0 0.00 0.00 0.00 46 924.7
20260831091017 54 360 11.0 17.0 0.00 0.00 0.00 46 924.7
20260831090521 54 360 11.0 17.0 0.00 0.00 0.00 46 924.8
20260831090127 54 360 10.0 16.0 0.00 0.00 0.00 46 924.7
20260831085517 54 360 9.0 16.0 0.00 0.00 0.00 47 924.7
20260831085230 54 360 9.0 16.0 0.00 0.00 0.00 47 924.6
20260831084542 53 360 8.0 12.0 0.00 0.00 0.00 48 924.6
20260831084016 54 360 7.0 15.0 0.00 0.00 0.00 47 924.6
20260831083517 54 360 9.0 21.0 0.00 0.00 0.00 47 924.7
20260831083044 54 360 9.0 21.0 0.00 0.00 0.00 46 924.5
20260831082518 54 360 11.0 17.0 0.00 0.00 0.00 47 924.3
20260831082021 54 360 12.0 17.0 0.00 0.00 0.00 47 924.2
20260831081543 54 360 10.0 18.0 0.00 0.00 0.00 47 924.1
20260831081016 54 360 11.0 18.0 0.00 0.00 0.00 46 924.3
20260831080519 54 360 10.0 17.0 0.00 0.00 0.00 46 924.1
20260831080042 54 360 10.0 17.0 0.00 0.00 0.00 46 924.3
20260831075519 54 360 11.0 17.0 0.00 0.00 0.00 46 924.3
20260831075020 54 360 12.0 17.0 0.00 0.00 0.00 46 924.1
20260831074545 54 360 11.0 19.0 0.00 0.00 0.00 46 924.1
20260831074017 54 360 12.0 18.0 0.00 0.00 0.00 46 924.1
20260831073517 54 360 13.0 19.0 0.00 0.00 0.00 46 924.1
20260831073047 54 360 12.0 19.0 0.00 0.00 0.00 46 924.0
20260831072517 54 360 12.0 18.0 0.00 0.00 0.00 46 923.8
20260831072016 54 360 11.0 17.0 0.00 0.00 0.00 46 924.0
20260831071541 55 360 11.0 22.0 0.00 0.00 0.00 45 924.0
20260831071017 55 360 13.0 19.0 0.00 0.00 0.00 45 924.1
20260831070517 55 360 13.0 19.0 0.00 0.00 0.00 45 924.1
20260831070048 55 360 14.0 18.0 0.00 0.00 0.00 45 924.2
20260831065521 54 360 11.0 17.0 0.00 0.00 0.00 46 924.2
20260831065016 54 360 13.0 18.0 0.00 0.00 0.00 46 924.2
20260831064544 54 360 11.0 18.0 0.00 0.00 0.00 46 924.1
20260831064018 54 360 11.0 17.0 0.00 0.00 0.00 46 924.2
20260831063517 54 360 12.0 17.0 0.00 0.00 0.00 46 924.1
20260831063042 53 360 12.0 18.0 0.00 0.00 0.00 47 924.2
20260831062516 53 360 11.0 18.0 0.00 0.00 0.00 47 924.6
20260831062021 53 360 11.0 16.0 0.00 0.00 0.00 46 924.6
20260831061541 54 360 12.0 18.0 0.00 0.00 0.00 46 924.5
20260831061017 54 360 12.0 19.0 0.00 0.00 0.00 46 924.5
20260831060518 54 360 13.0 18.0 0.00 0.00 0.00 46 924.5
20260831060050 54 360 12.0 17.0 0.00 0.00 0.00 47 924.5
20260831055519 53 360 11.0 16.0 0.00 0.00 0.00 47 924.5
20260831055017 53 360 10.0 16.0 0.00 0.00 0.00 48 924.7
20260831054543 53 360 11.0 16.0 0.00 0.00 0.00 49 924.5
20260831054018 52 360 10.0 16.0 0.00 0.00 0.00 50 924.6
20260831053518 52 360 8.0 13.0 0.00 0.00 0.00 50 924.4
20260831053048 52 360 8.0 14.0 0.00 0.00 0.00 50 924.2
20260831052517 52 360 10.0 14.0 0.00 0.00 0.00 50 924.0
20260831052021 52 360 7.0 15.0 0.00 0.00 0.00 51 924.1
20260831051544 52 360 9.0 15.0 0.00 0.00 0.00 51 924.0
20260831051016 52 360 9.0 15.0 0.00 0.00 0.00 52 924.0
20260831050518 52 360 9.0 14.0 0.00 0.00 0.00 52 924.0
20260831050053 52 360 10.0 14.0 0.00 0.00 0.00 52 924.5